FDX158 ZSPD-VHHX

Flight info

Callsign FDX158
Flight time N/A
Altitude 37100
Route HSN81D HSN W13 TOGUG/K0906S1100 W13 BEGMO W117 DST B221 LJG A470 BEBEM/N0492F361 A470 DOTMI/N0489F380 V512 MAGOG
Aircraft MD11/H-SDE1E2E3FGHIJ2J3J4J5M1RWXY/LB1D1

Departure

Time 2026-05-06 15:14
Airport Shanghai Pudong International Airport (ZSPD)

Arrival

Time N/A
Airport Hong Kong International Airport Kai Tak (VHHX)
Time Latitude Longitude Altitude Speed Heading
2026-05-06 14:50 31.13652 121.78585 30 ft 0 kts 252°
2026-05-06 14:58 31.13657 121.78602 28 ft 4 kts 252°
2026-05-06 14:59 31.13666 121.78632 30 ft 4 kts 252°
2026-05-06 14:59 31.13673 121.78659 30 ft 4 kts 253°
2026-05-06 14:59 31.13677 121.78685 30 ft 4 kts 289°
2026-05-06 14:59 31.13667 121.78703 30 ft 4 kts 336°
2026-05-06 15:00 31.13651 121.78710 29 ft 4 kts 343°
2026-05-06 15:00 31.13641 121.78714 30 ft 0 kts 342°
2026-05-06 15:07 31.13658 121.78708 30 ft 5 kts 342°
2026-05-06 15:07 31.13709 121.78688 30 ft 10 kts 341°
2026-05-06 15:07 31.13794 121.78655 30 ft 15 kts 342°
2026-05-06 15:07 31.13895 121.78616 30 ft 15 kts 342°
2026-05-06 15:08 31.13985 121.78582 30 ft 13 kts 342°
2026-05-06 15:08 31.14062 121.78552 30 ft 11 kts 342°
2026-05-06 15:08 31.14126 121.78529 30 ft 9 kts 343°
2026-05-06 15:08 31.14202 121.78501 31 ft 14 kts 342°
2026-05-06 15:09 31.14311 121.78460 30 ft 19 kts 342°
2026-05-06 15:09 31.14454 121.78406 30 ft 24 kts 342°
2026-05-06 15:09 31.14615 121.78346 30 ft 23 kts 342°
2026-05-06 15:09 31.14763 121.78290 30 ft 21 kts 342°
2026-05-06 15:10 31.14897 121.78239 30 ft 19 kts 341°
2026-05-06 15:10 31.15016 121.78193 30 ft 17 kts 341°
2026-05-06 15:10 31.15121 121.78152 30 ft 15 kts 341°
2026-05-06 15:10 31.15212 121.78117 30 ft 13 kts 341°
2026-05-06 15:11 31.15290 121.78091 30 ft 12 kts 343°
2026-05-06 15:11 31.15376 121.78085 30 ft 13 kts 22°
2026-05-06 15:11 31.15416 121.78163 31 ft 13 kts 70°
2026-05-06 15:11 31.15445 121.78268 32 ft 14 kts 73°
2026-05-06 15:12 31.15476 121.78385 33 ft 16 kts 73°
2026-05-06 15:12 31.15515 121.78521 31 ft 19 kts 71°
2026-05-06 15:12 31.15560 121.78679 29 ft 21 kts 72°
2026-05-06 15:12 31.15579 121.78793 29 ft 3 kts 109°
2026-05-06 15:13 31.15574 121.78798 28 ft 1 kts 135°
2026-05-06 15:13 31.15557 121.78810 29 ft 5 kts 150°
2026-05-06 15:13 31.15478 121.78844 29 ft 40 kts 161°
2026-05-06 15:13 31.14870 121.79075 33 ft 141 kts 161°
2026-05-06 15:14 31.13749 121.79510 433 ft 185 kts 160°
2026-05-06 15:14 31.12501 121.80041 1422 ft 198 kts 159°
2026-05-06 15:14 31.11131 121.80663 2194 ft 211 kts 160°
2026-05-06 15:14 31.09928 121.81170 3952 ft 176 kts 162°
2026-05-06 15:15 31.08625 121.81634 4348 ft 219 kts 163°
2026-05-06 15:15 31.07021 121.82195 4680 ft 255 kts 163°
2026-05-06 15:15 31.05301 121.82809 5666 ft 263 kts 163°
2026-05-06 15:15 31.03525 121.83420 6716 ft 267 kts 167°
2026-05-06 15:16 31.01707 121.83888 7594 ft 275 kts 170°
2026-05-06 15:16 30.99811 121.84374 8484 ft 283 kts 166°
2026-05-06 15:16 30.97917 121.85124 9352 ft 292 kts 161°
2026-05-06 15:16 30.96006 121.85997 10198 ft 299 kts 160°
2026-05-06 15:17 30.94065 121.86900 11035 ft 303 kts 161°
2026-05-06 15:17 30.92068 121.87718 11898 ft 306 kts 163°
2026-05-06 15:17 30.90045 121.88487 12754 ft 310 kts 164°
2026-05-06 15:17 30.87969 121.89261 13566 ft 316 kts 165°
2026-05-06 15:18 30.85859 121.90045 14375 ft 319 kts 163°
2026-05-06 15:18 30.83804 121.91043 14888 ft 336 kts 151°
2026-05-06 15:18 30.81985 121.92914 15006 ft 364 kts 125°
2026-05-06 15:18 30.80940 121.95670 15143 ft 388 kts 101°
2026-05-06 15:19 30.80857 121.98861 15418 ft 402 kts 80°
2026-05-06 15:19 30.81609 122.02007 16066 ft 405 kts 68°
2026-05-06 15:19 30.82693 122.05046 16700 ft 410 kts 65°
2026-05-06 15:19 30.83823 122.08118 17386 ft 414 kts 66°
2026-05-06 15:20 30.84892 122.11235 18099 ft 417 kts 67°
2026-05-06 15:20 30.85880 122.14430 18653 ft 422 kts 71°
2026-05-06 15:20 30.86541 122.17771 19198 ft 427 kts 82°
2026-05-06 15:20 30.86569 122.21247 19732 ft 434 kts 96°
2026-05-06 15:21 30.85841 122.24675 20233 ft 439 kts 111°
2026-05-06 15:21 30.84390 122.27812 20733 ft 444 kts 126°
2026-05-06 15:21 30.82308 122.30484 21238 ft 448 kts 140°
2026-05-06 15:21 30.79725 122.32530 21749 ft 450 kts 154°
2026-05-06 15:22 30.76832 122.33941 22239 ft 453 kts 162°
2026-05-06 15:22 30.73808 122.35035 22763 ft 457 kts 165°
2026-05-06 15:22 30.70761 122.36027 23254 ft 462 kts 166°
2026-05-06 15:22 30.67640 122.37046 23758 ft 467 kts 165°
2026-05-06 15:23 30.64508 122.38109 24240 ft 471 kts 165°
2026-05-06 15:23 30.61358 122.39215 24727 ft 475 kts 165°
2026-05-06 15:23 30.58134 122.40030 25187 ft 475 kts 176°
2026-05-06 15:23 30.54822 122.40216 25655 ft 477 kts 183°
2026-05-06 15:24 30.51496 122.40054 26143 ft 480 kts 186°
2026-05-06 15:24 30.48160 122.39763 26634 ft 483 kts 187°
2026-05-06 15:24 30.44790 122.39454 27143 ft 487 kts 187°
2026-05-06 15:24 30.41398 122.39172 27636 ft 491 kts 187°
2026-05-06 15:25 30.37974 122.38924 28134 ft 495 kts 186°
2026-05-06 15:25 30.34521 122.38702 28592 ft 499 kts 186°
2026-05-06 15:25 30.31043 122.38495 29039 ft 503 kts 186°
2026-05-06 15:25 30.27534 122.38293 29503 ft 507 kts 186°
2026-05-06 15:26 30.24002 122.38092 29947 ft 510 kts 186°
2026-05-06 15:26 30.20435 122.37889 30323 ft 514 kts 186°
2026-05-06 15:26 30.16899 122.37686 30674 ft 516 kts 186°
2026-05-06 15:26 30.13300 122.37478 31048 ft 518 kts 186°
2026-05-06 15:27 30.09704 122.37271 31466 ft 518 kts 186°
2026-05-06 15:27 30.06098 122.37063 31870 ft 518 kts 186°
2026-05-06 15:27 30.02499 122.36856 32316 ft 517 kts 186°
2026-05-06 15:27 29.98910 122.36648 32746 ft 516 kts 186°
2026-05-06 15:28 29.95326 122.36445 33166 ft 515 kts 185°
2026-05-06 15:28 29.91737 122.36542 33559 ft 518 kts 177°
2026-05-06 15:28 29.88161 122.37121 33951 ft 519 kts 172°
2026-05-06 15:28 29.84616 122.37959 34272 ft 520 kts 169°
2026-05-06 15:29 29.81081 122.38893 34578 ft 520 kts 169°
2026-05-06 15:29 29.77558 122.39829 34897 ft 519 kts 169°
2026-05-06 15:29 29.74029 122.40735 35207 ft 518 kts 170°
2026-05-06 15:29 29.70549 122.41594 35511 ft 517 kts 170°
2026-05-06 15:30 29.67032 122.42437 35809 ft 516 kts 171°
2026-05-06 15:30 29.63512 122.43267 36108 ft 516 kts 171°
2026-05-06 15:30 29.59998 122.44088 36383 ft 515 kts 171°
2026-05-06 15:30 29.56481 122.44909 36659 ft 514 kts 171°
2026-05-06 15:31 29.52977 122.45728 36928 ft 514 kts 171°
2026-05-06 15:31 29.49466 122.46550 37065 ft 514 kts 171°
2026-05-06 15:31 29.45959 122.47371 37090 ft 515 kts 171°
2026-05-06 15:32 29.35401 122.49842 37094 ft 516 kts 171°
2026-05-06 15:32 29.28369 122.51485 37095 ft 517 kts 171°
2026-05-06 15:33 29.21317 122.52425 37093 ft 511 kts 185°
2026-05-06 15:33 29.14396 122.51070 37096 ft 500 kts 204°
2026-05-06 15:34 29.08240 122.47548 37094 ft 492 kts 216°
2026-05-06 15:34 29.02392 122.43461 37096 ft 494 kts 215°
2026-05-06 15:35 28.96379 122.39627 37097 ft 495 kts 213°
2026-05-06 15:35 28.90264 122.35971 37094 ft 496 kts 212°
2026-05-06 15:36 28.84135 122.32360 37091 ft 495 kts 212°
2026-05-06 15:36 28.78043 122.28764 37090 ft 495 kts 212°
2026-05-06 15:37 28.71920 122.25142 37087 ft 495 kts 212°
2026-05-06 15:37 28.65806 122.21529 37081 ft 495 kts 212°
2026-05-06 15:38 28.59689 122.17920 37083 ft 495 kts 212°
2026-05-06 15:38 28.53570 122.14315 37092 ft 495 kts 212°
2026-05-06 15:39 28.47449 122.10713 37093 ft 495 kts 212°
2026-05-06 15:39 28.41373 122.07142 37086 ft 495 kts 212°
2026-05-06 15:40 28.35253 122.03562 37085 ft 494 kts 212°
2026-05-06 15:40 28.29144 121.99991 37087 ft 493 kts 212°
2026-05-06 15:41 28.23038 121.96419 37078 ft 493 kts 212°
2026-05-06 15:41 28.16928 121.92846 37084 ft 494 kts 212°
2026-05-06 15:42 28.10855 121.89295 37086 ft 494 kts 213°
2026-05-06 15:42 28.05105 121.85171 37084 ft 484 kts 225°
2026-05-06 15:43 28.00658 121.79646 37071 ft 470 kts 242°
2026-05-06 15:43 27.97807 121.73118 37074 ft 457 kts 257°
2026-05-06 15:44 27.96241 121.66188 37088 ft 453 kts 263°
2026-05-06 15:44 27.94964 121.59255 37076 ft 453 kts 263°
2026-05-06 15:45 27.93612 121.52288 37069 ft 454 kts 262°
2026-05-06 15:45 27.92202 121.45334 37077 ft 453 kts 262°
2026-05-06 15:46 27.90775 121.38391 37074 ft 453 kts 262°
2026-05-06 15:46 27.89350 121.31481 37071 ft 453 kts 262°
2026-05-06 15:47 27.87916 121.24540 37082 ft 453 kts 262°
2026-05-06 15:47 27.86481 121.17626 37081 ft 453 kts 261°
2026-05-06 15:48 27.85042 121.10690 37079 ft 453 kts 261°
2026-05-06 15:48 27.83849 121.04930 37073 ft 453 kts 261°
2026-05-06 15:49 27.82176 120.96871 37070 ft 453 kts 261°
2026-05-06 15:49 27.80735 120.89948 37068 ft 451 kts 261°
2026-05-06 15:50 27.79294 120.83045 37069 ft 451 kts 261°
2026-05-06 15:50 27.78094 120.77308 37066 ft 451 kts 261°
2026-05-06 15:51 27.76432 120.70460 37068 ft 455 kts 254°
2026-05-06 15:51 27.73497 120.64074 37070 ft 465 kts 239°
2026-05-06 15:52 27.68985 120.58730 37069 ft 478 kts 223°
2026-05-06 15:52 27.63417 120.54502 37071 ft 485 kts 217°
2026-05-06 15:53 27.57644 120.50557 37061 ft 484 kts 217°
2026-05-06 15:53 27.51950 120.46579 37064 ft 484 kts 218°
2026-05-06 15:54 27.46266 120.42525 37063 ft 483 kts 218°
2026-05-06 15:54 27.40582 120.38454 37060 ft 482 kts 218°
2026-05-06 15:55 27.34919 120.34416 37061 ft 482 kts 218°
2026-05-06 15:55 27.29248 120.30404 37066 ft 481 kts 218°
2026-05-06 15:56 27.23583 120.26403 37061 ft 481 kts 218°
2026-05-06 15:56 27.17919 120.22404 37069 ft 481 kts 218°
2026-05-06 15:57 27.12295 120.18433 37064 ft 481 kts 218°
2026-05-06 15:57 27.06637 120.14417 37078 ft 482 kts 218°
2026-05-06 15:58 27.00971 120.10390 37081 ft 481 kts 218°
2026-05-06 15:58 26.95328 120.06384 37078 ft 479 kts 218°
2026-05-06 15:59 26.89707 120.02397 37082 ft 479 kts 218°
2026-05-06 15:59 26.84070 119.98409 37089 ft 479 kts 218°
2026-05-06 16:00 26.78437 119.94435 37087 ft 478 kts 218°
2026-05-06 16:00 26.72840 119.90488 37085 ft 478 kts 218°
2026-05-06 16:01 26.67203 119.86517 37082 ft 479 kts 218°
2026-05-06 16:01 26.61566 119.82550 37084 ft 478 kts 218°
2026-05-06 16:02 26.55930 119.78588 37092 ft 477 kts 218°
2026-05-06 16:02 26.50328 119.74655 37090 ft 477 kts 218°
2026-05-06 16:03 26.44708 119.70709 37089 ft 477 kts 218°
2026-05-06 16:03 26.39136 119.66787 37095 ft 477 kts 218°
2026-05-06 16:04 26.33525 119.62834 37098 ft 477 kts 218°
2026-05-06 16:04 26.27918 119.58888 37099 ft 476 kts 218°
2026-05-06 16:05 26.22216 119.55085 37089 ft 482 kts 211°
2026-05-06 16:05 26.15855 119.52508 37099 ft 489 kts 202°
2026-05-06 16:06 26.09342 119.50431 37101 ft 489 kts 201°
2026-05-06 16:06 26.02819 119.48296 37102 ft 488 kts 202°
2026-05-06 16:07 25.96315 119.46080 37091 ft 488 kts 202°
2026-05-06 16:07 25.89852 119.43853 37094 ft 488 kts 202°
2026-05-06 16:08 25.83360 119.41619 37092 ft 488 kts 202°
2026-05-06 16:08 25.76874 119.39349 37087 ft 487 kts 205°
2026-05-06 16:09 25.71018 119.35876 37080 ft 471 kts 224°
2026-05-06 16:09 25.66489 119.30774 37081 ft 462 kts 235°
2026-05-06 16:10 25.62376 119.25294 37080 ft 463 kts 234°
2026-05-06 16:10 25.58087 119.19952 37066 ft 464 kts 232°
2026-05-06 16:11 25.53681 119.14717 37066 ft 464 kts 232°
2026-05-06 16:11 25.49272 119.09539 37056 ft 465 kts 232°
2026-05-06 16:12 25.44836 119.04330 37058 ft 465 kts 232°
2026-05-06 16:12 25.40404 118.99124 37050 ft 465 kts 232°
2026-05-06 16:13 25.35963 118.93913 37047 ft 465 kts 232°
2026-05-06 16:13 25.31555 118.88670 37043 ft 465 kts 232°
2026-05-06 16:14 25.27222 118.83429 37045 ft 465 kts 232°
2026-05-06 16:14 25.22863 118.78147 37044 ft 465 kts 232°
2026-05-06 16:15 25.18497 118.72868 37039 ft 464 kts 233°
2026-05-06 16:15 25.14134 118.67601 37045 ft 464 kts 232°
2026-05-06 16:16 25.09764 118.62342 37043 ft 465 kts 232°
2026-05-06 16:16 25.05308 118.57164 37043 ft 466 kts 231°
2026-05-06 16:17 25.00831 118.52043 37044 ft 466 kts 231°
2026-05-06 16:17 24.96347 118.46913 37044 ft 466 kts 231°
2026-05-06 16:18 24.91852 118.41765 37039 ft 466 kts 231°
2026-05-06 16:18 24.87361 118.36623 37042 ft 466 kts 231°
2026-05-06 16:19 24.82855 118.31470 37045 ft 466 kts 231°
2026-05-06 16:19 24.78374 118.26352 37043 ft 466 kts 231°
2026-05-06 16:20 24.73873 118.21217 37046 ft 466 kts 231°
2026-05-06 16:20 24.69356 118.16074 37049 ft 467 kts 231°
2026-05-06 16:21 24.64835 118.10947 37047 ft 467 kts 231°
2026-05-06 16:21 24.60315 118.05818 37044 ft 467 kts 231°
2026-05-06 16:22 24.55817 118.00662 37046 ft 466 kts 232°
2026-05-06 16:22 24.51477 117.95432 37047 ft 466 kts 233°
2026-05-06 16:23 24.47150 117.90147 37050 ft 465 kts 233°
2026-05-06 16:23 24.42812 117.84863 37046 ft 466 kts 233°
2026-05-06 16:24 24.38463 117.79586 37040 ft 466 kts 233°
2026-05-06 16:24 24.34112 117.74316 37026 ft 466 kts 232°
2026-05-06 16:25 24.29761 117.69053 37048 ft 466 kts 233°
2026-05-06 16:25 24.25403 117.63786 37046 ft 465 kts 233°
2026-05-06 16:26 24.21056 117.58538 37039 ft 465 kts 233°
2026-05-06 16:26 24.16691 117.53301 37040 ft 466 kts 231°
2026-05-06 16:27 24.12031 117.48407 37048 ft 468 kts 227°
2026-05-06 16:27 24.07174 117.43650 37053 ft 468 kts 227°
2026-05-06 16:28 24.02329 117.38900 37051 ft 467 kts 227°
2026-05-06 16:28 23.97507 117.34135 37055 ft 467 kts 227°
2026-05-06 16:29 23.92724 117.29401 37040 ft 466 kts 227°
2026-05-06 16:29 23.87916 117.24644 37045 ft 466 kts 227°
2026-05-06 16:30 23.83903 117.20678 37045 ft 466 kts 227°
2026-05-06 16:30 23.78276 117.15126 37050 ft 466 kts 227°
2026-05-06 16:31 23.73538 117.10378 37046 ft 464 kts 229°
2026-05-06 16:31 23.69045 117.05338 37043 ft 462 kts 231°
2026-05-06 16:32 23.64645 117.00213 37043 ft 462 kts 231°
2026-05-06 16:32 23.60250 116.95120 37046 ft 462 kts 231°
2026-05-06 16:33 23.55823 116.90022 37046 ft 463 kts 231°
2026-05-06 16:34 23.49181 116.82397 37046 ft 463 kts 231°
2026-05-06 16:34 23.44636 116.77418 37042 ft 466 kts 225°
2026-05-06 16:35 23.39584 116.73023 37044 ft 469 kts 221°
2026-05-06 16:35 23.34363 116.68764 37047 ft 469 kts 221°
2026-05-06 16:36 23.29168 116.64484 37048 ft 468 kts 222°
2026-05-06 16:36 23.23990 116.60172 37046 ft 468 kts 222°
2026-05-06 16:37 23.18817 116.55854 37042 ft 469 kts 222°
2026-05-06 16:37 23.14517 116.52269 37047 ft 469 kts 222°
2026-05-06 16:38 23.09340 116.47957 37043 ft 469 kts 222°
2026-05-06 16:38 23.04164 116.43652 37046 ft 469 kts 222°
2026-05-06 16:39 22.98981 116.39345 37043 ft 469 kts 221°
2026-05-06 16:39 22.93796 116.35043 37045 ft 469 kts 221°
2026-05-06 16:40 22.88642 116.30769 37068 ft 469 kts 222°
2026-05-06 16:40 22.83455 116.26464 37070 ft 469 kts 222°
2026-05-06 16:41 22.78265 116.22159 37068 ft 469 kts 221°
2026-05-06 16:41 22.73077 116.17859 37069 ft 469 kts 221°
2026-05-06 16:42 22.67910 116.13606 37064 ft 470 kts 221°
2026-05-06 16:42 22.62683 116.09323 37061 ft 470 kts 221°
2026-05-06 16:43 22.57465 116.05050 37065 ft 470 kts 221°
2026-05-06 16:43 22.52253 116.00783 37062 ft 470 kts 221°
2026-05-06 16:44 22.47036 115.96516 37062 ft 470 kts 221°
2026-05-06 16:44 22.41853 115.92279 36910 ft 472 kts 221°
2026-05-06 16:44 22.39244 115.90141 36631 ft 470 kts 221°
2026-05-06 16:45 22.36727 115.87897 36262 ft 468 kts 226°
2026-05-06 16:45 22.34450 115.85390 35739 ft 465 kts 233°
2026-05-06 16:45 22.32544 115.82597 35188 ft 460 kts 241°
2026-05-06 16:45 22.31039 115.79552 34646 ft 459 kts 248°
2026-05-06 16:46 22.29937 115.76324 34113 ft 458 kts 255°
2026-05-06 16:46 22.29235 115.72973 33526 ft 458 kts 262°
2026-05-06 16:46 22.28904 115.69554 32958 ft 459 kts 267°
2026-05-06 16:46 22.28773 115.66097 32403 ft 463 kts 269°
2026-05-06 16:47 22.28708 115.62654 31876 ft 466 kts 269°
2026-05-06 16:47 22.28645 115.59143 31291 ft 469 kts 269°
2026-05-06 16:47 22.28563 115.55645 30678 ft 473 kts 268°
2026-05-06 16:47 22.28458 115.52076 30049 ft 474 kts 268°
2026-05-06 16:48 22.28336 115.48527 29328 ft 471 kts 268°
2026-05-06 16:48 22.28206 115.45004 28661 ft 467 kts 268°
2026-05-06 16:48 22.28073 115.41526 28028 ft 462 kts 268°
2026-05-06 16:48 22.27940 115.38079 27411 ft 457 kts 268°
2026-05-06 16:49 22.27807 115.34669 26787 ft 452 kts 268°
2026-05-06 16:49 22.27676 115.31295 26195 ft 448 kts 268°
2026-05-06 16:49 22.27546 115.27948 25611 ft 444 kts 268°
2026-05-06 16:49 22.27417 115.24628 25031 ft 440 kts 268°
2026-05-06 16:50 22.27288 115.21341 24448 ft 437 kts 268°
2026-05-06 16:50 22.27162 115.18115 23876 ft 433 kts 268°
2026-05-06 16:50 22.26980 115.14872 23254 ft 430 kts 264°
2026-05-06 16:50 22.26576 115.11690 22574 ft 426 kts 261°